Williamsburg, VA

5:02 AM EST on December 05, 2016 (GMT -0500)
Williamsburg-jamestown

Weather History for KJGG - June, 2013

Change the Weather History Date:

Thursday, June 13, 2013

  Actual Average Record
Temperature  
Mean Temperature 86 °F -  
Max Temperature 96 °F 84 °F 96 °F (2013)
Min Temperature 77 °F 61 °F 48 °F (1952)
Cooling Degree Days 22    
Growing Degree Days 36 (Base 50)    
Moisture  
Dew Point 73 °F    
Average Humidity 69    
Maximum Humidity 89    
Minimum Humidity 44    
Precipitation  
Precipitation 0.00 in - - ()
Sea Level Pressure  
Sea Level Pressure 29.71 in    
Wind  
Wind Speed 5 mph (SW)    
Max Wind Speed 14 mph    
Max Gust Speed 23 mph    
Visibility 10 miles    
Events      
Averages and records for this station are not official NWS values.
T = Trace of Precipitation, MM = Missing Value Source: NWS Daily Summary

Daily Weather History Graph

Daily Weather History Graph

Search for Another Location

Airport or City:

Trip Planner

Search our weather history database for the weather conditions in past years. The results will help you decide how hot, cold, wet, or windy it might be!

Date:

Astronomy

Jun. 13, 2013 Rise Set
Actual Time 5:45 AM EDT 8:28 PM EDT
Civil Twilight 5:15 AM EDT 8:59 PM EDT
Nautical Twilight 4:36 AM EDT 9:37 PM EDT
Astronomical Twilight 3:53 AM EDT 10:21 PM EDT
Moon 10:15 AM EDT (6/13) 11:39 PM EDT (6/13)
Length of Visible Light 15h 44m
Length of Day
14h 42m
Waxing Crescent, 21% of the Moon is Illuminated
Jun 13
Waxing Crescent
Jun 16
First Quarter
Jun 23
Full
Jun 30
Last Quarter
Jul 8
New

Hourly Weather History & Observations

Time (EDT) Temp. Heat Index Dew Point Humidity Pressure Visibility Wind Dir Wind Speed Gust Speed Precip Events Conditions
12:15 AM 80.6 °F 85.4 °F 73.4 °F 79% 29.84 in 10.0 mi Calm Calm - N/A   Clear
12:35 AM 80.6 °F 85.4 °F 73.4 °F 79% 29.83 in 10.0 mi WSW 5.8 mph - N/A   Clear
12:55 AM 82.4 °F 88.2 °F 73.4 °F 74% 29.83 in 10.0 mi SW 4.6 mph - N/A   Clear
1:15 AM 82.4 °F 88.2 °F 73.4 °F 74% 29.82 in 10.0 mi SW 5.8 mph - N/A   Clear
1:35 AM 82.4 °F 88.2 °F 73.4 °F 74% 29.81 in 10.0 mi WSW 5.8 mph - N/A   Clear
1:55 AM 82.4 °F 88.2 °F 73.4 °F 74% 29.82 in 10.0 mi West 6.9 mph - N/A   Clear
2:15 AM 80.6 °F 85.4 °F 73.4 °F 79% 29.80 in 10.0 mi WSW 9.2 mph - N/A   Clear
2:35 AM 80.6 °F 85.4 °F 73.4 °F 79% 29.79 in 10.0 mi WSW 6.9 mph - N/A   Clear
2:55 AM 80.6 °F 84.6 °F 71.6 °F 74% 29.79 in 10.0 mi WSW 5.8 mph - N/A   Clear
3:15 AM 80.6 °F 85.4 °F 73.4 °F 79% 29.78 in 10.0 mi WSW 3.5 mph - N/A   Clear
3:35 AM 80.6 °F 85.4 °F 73.4 °F 79% 29.78 in 10.0 mi WSW 3.5 mph - N/A   Clear
3:55 AM 80.6 °F 85.4 °F 73.4 °F 79% 29.78 in 10.0 mi SW 4.6 mph - N/A   Clear
4:15 AM 78.8 °F - 71.6 °F 78% 29.78 in 10.0 mi SW 5.8 mph - N/A   Clear
4:35 AM 78.8 °F - 71.6 °F 78% 29.78 in 10.0 mi SW 3.5 mph - N/A   Clear
4:55 AM 78.8 °F - 73.4 °F 83% 29.77 in 10.0 mi SSW 3.5 mph - N/A   Clear
5:15 AM 78.8 °F - 73.4 °F 83% 29.77 in 10.0 mi Calm Calm - N/A   Clear
5:35 AM 77.0 °F - 73.4 °F 89% 29.77 in 10.0 mi South 3.5 mph - N/A   Clear
5:55 AM 77.0 °F - 73.4 °F 89% 29.75 in 10.0 mi SSW 4.6 mph - N/A   Clear
6:15 AM 77.0 °F - 73.4 °F 89% 29.74 in 10.0 mi Calm Calm - N/A   Clear
6:35 AM 77.0 °F - 73.4 °F 89% 29.74 in 10.0 mi South 4.6 mph - N/A   Clear
6:55 AM 78.8 °F - 73.4 °F 83% 29.75 in 10.0 mi SSW 3.5 mph - N/A   Clear
7:15 AM 78.8 °F - 73.4 °F 83% 29.74 in 10.0 mi South 3.5 mph - N/A   Clear
7:35 AM 78.8 °F - 73.4 °F 83% 29.73 in 10.0 mi South 6.9 mph - N/A   Clear
7:55 AM 80.6 °F 85.4 °F 73.4 °F 79% 29.73 in 10.0 mi SSW 3.5 mph - N/A   Clear
8:15 AM 80.6 °F 85.4 °F 73.4 °F 79% 29.74 in 10.0 mi WSW 4.6 mph - N/A   Clear
8:35 AM 80.6 °F 85.4 °F 73.4 °F 79% 29.73 in 10.0 mi WSW 6.9 mph - N/A   Clear
8:55 AM 82.4 °F 88.2 °F 73.4 °F 74% 29.74 in 10.0 mi WSW 4.6 mph - N/A   Clear
9:15 AM 84.2 °F 90.9 °F 73.4 °F 70% 29.73 in 10.0 mi Calm Calm - N/A   Clear
9:35 AM 84.2 °F 90.9 °F 73.4 °F 70% 29.72 in 10.0 mi SSW 3.5 mph - N/A   Clear
9:55 AM 84.2 °F 90.9 °F 73.4 °F 70% 29.71 in 10.0 mi WSW 5.8 mph - N/A   Clear
10:15 AM 86.0 °F 95.1 °F 75.2 °F 70% 29.72 in 10.0 mi WSW 6.9 mph - N/A   Clear
10:35 AM 87.8 °F 97.6 °F 75.2 °F 66% 29.72 in 10.0 mi WSW 6.9 mph - N/A   Clear
10:55 AM 87.8 °F 97.6 °F 75.2 °F 66% 29.71 in 10.0 mi WSW 9.2 mph - N/A   Clear
11:15 AM 87.8 °F 97.6 °F 75.2 °F 66% 29.71 in 10.0 mi WSW 5.8 mph - N/A   Clear
11:35 AM 89.6 °F 99.8 °F 75.2 °F 62% 29.70 in 10.0 mi West 3.5 mph - N/A   Clear
11:55 AM 89.6 °F 98.2 °F 73.4 °F 59% 29.68 in 10.0 mi WSW 8.1 mph 18.4 mph N/A   Clear
12:15 PM 89.6 °F 98.2 °F 73.4 °F 59% 29.67 in 10.0 mi SW 8.1 mph 17.3 mph N/A   Clear
12:35 PM 91.4 °F 100.1 °F 73.4 °F 55% 29.65 in 10.0 mi WSW 5.8 mph - N/A   Clear
12:55 PM 93.2 °F 100.5 °F 71.6 °F 49% 29.64 in 10.0 mi WSW 11.5 mph 18.4 mph N/A   Clear
1:15 PM 93.2 °F 100.5 °F 71.6 °F 49% 29.63 in 10.0 mi WSW 12.7 mph 17.3 mph N/A   Clear
1:35 PM 93.2 °F 102.4 °F 73.4 °F 52% 29.62 in 10.0 mi SW 9.2 mph 18.4 mph N/A   Clear
1:55 PM 93.2 °F 100.5 °F 71.6 °F 49% 29.61 in 10.0 mi SW 12.7 mph 19.6 mph N/A   Clear
2:15 PM 95.0 °F 103.2 °F 71.6 °F 47% 29.60 in 10.0 mi WSW 9.2 mph 17.3 mph N/A   Clear
2:35 PM 95.0 °F 104.5 °F 73.4 °F 49% 29.58 in 10.0 mi Calm Calm - N/A   Scattered Clouds
2:55 PM 96.8 °F 105.1 °F 71.6 °F 44% 29.57 in 10.0 mi SW 9.2 mph 23.0 mph N/A   Scattered Clouds
3:15 PM 96.8 °F 105.1 °F 71.6 °F 44% 29.55 in 10.0 mi SW 10.4 mph 20.7 mph N/A   Clear
3:35 PM 96.8 °F 105.1 °F 71.6 °F 44% 29.54 in 10.0 mi WSW 10.4 mph 17.3 mph N/A   Clear
3:55 PM 95.0 °F 103.2 °F 71.6 °F 47% 29.54 in 10.0 mi WSW 8.1 mph 17.3 mph N/A   Scattered Clouds
4:15 PM 96.8 °F 107.3 °F 73.4 °F 47% 29.53 in 10.0 mi WSW 13.8 mph 17.3 mph N/A   Scattered Clouds
4:35 PM 95.0 °F 104.5 °F 73.4 °F 49% 29.53 in 10.0 mi WSW 8.1 mph - N/A   Scattered Clouds
4:55 PM 93.2 °F 102.4 °F 73.4 °F 52% 29.54 in 10.0 mi West 12.7 mph 17.3 mph N/A   Scattered Clouds